Iliamna, AK

10:06 PM AKDT on June 26, 2017 (GMT -0800)
Iliamna

Weather History for PAIL - October, 2013

Change the Weather History Date:

Sunday, October 20, 2013

  Actual Average Record
Temperature  
Mean Temperature 44 °F -  
Max Temperature 48 °F 36 °F 53 °F (2015)
Min Temperature 41 °F 26 °F 9 °F (1958)
Degree Days  
Heating Degree Days 22    
Moisture  
Dew Point 39 °F    
Average Humidity 83    
Maximum Humidity 100    
Minimum Humidity 58    
Precipitation  
Precipitation 0.02 in - - ()
Sea Level Pressure  
Sea Level Pressure 29.77 in    
Wind  
Wind Speed 6 mph (ESE)    
Max Wind Speed 13 mph    
Max Gust Speed -    
Visibility 10 miles    
Events Rain    
Averages and records for this station are not official NWS values.
T = Trace of Precipitation, MM = Missing Value Source: NWS Daily Summary

Daily Weather History Graph

Daily Weather History Graph

Search for Another Location

Airport or City:

Trip Planner

Search our weather history database for the weather conditions in past years. The results will help you decide how hot, cold, wet, or windy it might be!

Date:

Astronomy

Oct. 20, 2013 Rise Set
Actual Time 9:11 AM AKDT 6:55 PM AKDT
Civil Twilight 8:29 AM AKDT 7:38 PM AKDT
Nautical Twilight 7:41 AM AKDT 8:26 PM AKDT
Astronomical Twilight 6:53 AM AKDT 9:13 PM AKDT
Moon 7:39 PM AKDT (10/20) 11:30 AM AKDT (10/20)
Length of Visible Light 11h 08m
Length of Day
9h 43m
Waning Gibbous, 96% of the Moon is Illuminated
Oct 20
Waning Gibbous
Oct 26
Last Quarter
Nov 3
New
Nov 9
First Quarter
Nov 17
Full

Hourly Weather History & Observations

Time (AKDT) Temp. Windchill Dew Point Humidity Pressure Visibility Wind Dir Wind Speed Gust Speed Precip Events Conditions
12:53 AM 43.0 °F 39.5 °F 39.9 °F 89% 29.64 in 10.0 mi SSE 5.8 mph - 0.01 in   Overcast
1:53 AM 44.1 °F 40.8 °F 39.9 °F 85% 29.66 in 10.0 mi SSE 5.8 mph - N/A   Overcast
2:53 AM 44.1 °F 40.8 °F 39.9 °F 85% 29.68 in 10.0 mi SSE 5.8 mph - N/A   Overcast
3:53 AM 45.0 °F 42.6 °F 39.9 °F 82% 29.69 in 10.0 mi ESE 4.6 mph - N/A   Overcast
4:53 AM 43.0 °F 39.5 °F 41.0 °F 93% 29.71 in 10.0 mi East 5.8 mph - 0.00 in Rain Light Rain
5:53 AM 44.1 °F 39.5 °F 42.1 °F 93% 29.71 in 10.0 mi East 8.1 mph - 0.00 in Rain Light Rain
6:24 AM 42.8 °F 38.6 °F 42.8 °F 100% 29.71 in 10.0 mi ENE 6.9 mph - 0.00 in   Overcast
6:53 AM 43.0 °F 38.8 °F 41.0 °F 93% 29.72 in 10.0 mi East 6.9 mph - 0.00 in Rain Light Rain
7:31 AM 42.8 °F 41.1 °F 42.8 °F 100% 29.72 in 10.0 mi ESE 3.5 mph - 0.02 in Rain Light Rain
7:53 AM 43.0 °F 40.3 °F 42.1 °F 97% 29.73 in 10.0 mi East 4.6 mph - 0.02 in Rain Light Rain
8:32 AM 42.8 °F 41.1 °F 41.0 °F 93% 29.73 in 10.0 mi East 3.5 mph - 0.00 in   Overcast
8:53 AM 42.1 °F 38.4 °F 41.0 °F 96% 29.74 in 10.0 mi ENE 5.8 mph - 0.00 in   Overcast
9:51 AM 42.8 °F 39.3 °F 39.2 °F 87% 29.75 in 10.0 mi East 5.8 mph - N/A   Overcast
9:53 AM 43.0 °F 38.8 °F 39.9 °F 89% 29.75 in 10.0 mi East 6.9 mph - N/A   Overcast
10:51 AM 44.6 °F 40.7 °F 41.0 °F 87% 29.76 in 10.0 mi East 6.9 mph - 0.00 in   Mostly Cloudy
10:53 AM 44.1 °F 40.1 °F 41.0 °F 89% 29.77 in 10.0 mi East 6.9 mph - 0.00 in   Mostly Cloudy
11:53 AM 45.0 °F 41.2 °F 41.0 °F 86% 29.78 in 10.0 mi ESE 6.9 mph - N/A   Scattered Clouds
12:53 PM 46.9 °F - 39.0 °F 74% 29.79 in 10.0 mi SE 10.4 mph - N/A   Mostly Cloudy
1:53 PM 46.0 °F 41.9 °F 39.0 °F 76% 29.80 in 10.0 mi SE 8.1 mph - N/A   Mostly Cloudy
2:53 PM 48.0 °F - 37.9 °F 68% 29.80 in 10.0 mi SE 12.7 mph - N/A   Mostly Cloudy
3:53 PM 46.9 °F - 37.0 °F 68% 29.80 in 10.0 mi SE 12.7 mph - 0.00 in Rain Light Rain
4:53 PM 46.9 °F - 36.0 °F 66% 29.80 in 10.0 mi SE 10.4 mph - 0.00 in   Overcast
5:53 PM 44.1 °F 39.5 °F 37.9 °F 79% 29.82 in 10.0 mi WSW 8.1 mph - N/A   Overcast
6:53 PM 42.1 °F 39.2 °F 39.0 °F 89% 29.83 in 10.0 mi WNW 4.6 mph - 0.01 in   Mostly Cloudy
7:53 PM 41.0 °F 39.0 °F 37.9 °F 89% 29.84 in 10.0 mi NE 3.5 mph - N/A   Mostly Cloudy
8:53 PM 44.1 °F 38.6 °F 36.0 °F 73% 29.85 in 10.0 mi ESE 10.4 mph - N/A   Clear
9:53 PM 43.0 °F 40.3 °F 37.9 °F 82% 29.86 in 10.0 mi ENE 4.6 mph - N/A   Overcast
10:53 PM 44.1 °F 39.5 °F 35.1 °F 71% 29.86 in 10.0 mi ESE 8.1 mph - 0.01 in   Overcast
11:53 PM 44.1 °F 41.5 °F 36.0 °F 73% 29.88 in 10.0 mi ESE 4.6 mph - N/A   Overcast